Regional Weather Roundup
Issued by NWS

Home | Current Version | Previous Version | Text Only | Print | Product List | Glossary Off
Versions: 1 2 3 4 5 6 7 8 9 10 11 12 13 14 15 16 17 18 19 20 21 22 23 24 25 26 27 28 29 30 31 32 33 34 35 36 37 38 39 40 41 42 43 44 45 46 47 48 49 50

000
ASUS43 KTOP 010908
RWRKS

WEATHER ROUNDUP FOR KANSAS
NATIONAL WEATHER SERVICE GOODLAND KS
400 AM CDT SAT AUG 01 2015

NOTE:  "FAIR" INDICATES FEW OR NO CLOUDS BELOW 12,000 FEET WITH NO
SIGNIFICANT WEATHER AND/OR OBSTRUCTIONS TO VISIBILITY.

KSZ001>006-013>018-027>032-041>047-011000-
NORTHWEST KANSAS

CITY           SKY/WX    TMP DP  RH WIND       PRES   REMARKS
GOODLAND       CLEAR     68  60  75 SW16      30.17F
HAYS           CLEAR     70  61  73 SW6       30.11S
HILL CITY      CLEAR     72  66  81 SW9       30.12R
RUSSELL        CLEAR     70  68  93 S8        30.09S
$$

KSZ061>065-074>080-084>089-011000-
SOUTHWEST KANSAS

CITY           SKY/WX    TMP DP  RH WIND       PRES   REMARKS
DODGE CITY     PTCLDY    69  66  90 SW3       30.15R
ELKHART          N/A     66  62  87 SE5         N/A
GARDEN CITY    PTCLDY    68  66  93 S5        30.15S
GREAT BEND     CLEAR     70  64  83 S3        30.11S
LIBERAL        CLOUDY    72  66  83 CALM      30.15F
PRATT          CLEAR     70  68  94 W3        30.12F
$$

KSZ066>073-081>083-090>101-011000-
SOUTHEAST KANSAS

CITY           SKY/WX    TMP DP  RH WIND       PRES   REMARKS
CHANUTE        CLEAR     67  67 100 CALM      30.08R
COFFEYVILLE    CLEAR     67  65  93 CALM      30.07R
HUTCHINSON     CLEAR     72  68  87 CALM      30.09F
MEDICINE LODGE   N/A     73  70  90 SE3       30.09F
NEWTON         CLEAR     72  66  83 S3        30.12S
PARSONS        CLEAR     66  66 100 CALM      30.09R
WICHITA INTL   PTCLDY    74  71  91 CALM      30.09S
WICHITA JABRA  CLEAR     74  71  91 SW5       30.09S
WICHITA MCCONL CLEAR     73  71  92 S6        30.09S
WINFIELD       CLEAR     72  71  97 SW3       30.10S
$$

KSZ007>012-019>026-033>040-048>060-102>105-011000-
NORTHEAST KANSAS

CITY           SKY/WX    TMP DP  RH WIND       PRES   REMARKS
CONCORDIA      CLEAR     68  65  90 CALM      30.08R
EMPORIA        CLEAR     72  70  93 CALM      30.08F
LAWRENCE       CLEAR     69  67  93 SE3       30.05F
MANHATTAN      CLEAR     70  69  97 CALM      30.06S
MARYSVILLE     CLEAR     72  70  94 S3        30.06S
OLATHE IND     CLEAR     72  68  87 S3        30.07F
OLATHE EXE     CLEAR     71  67  87 CALM      30.06S
SALINA         CLEAR     72  67  84 S5        30.07F
TOPEKA BILLARD CLEAR     72  68  87 CALM      30.05F
TOPEKA FORBES  CLEAR     73  67  81 SW6       30.05F
$$



USA.gov is the U.S. government's official web portal to all federal, state and local government web resources and services.